Wetbulb
39.71 38.41 38.82 39.67 40.45 41.24 41.67 42.19 43.12 44.58 44.75 45.05 45.42 46.18 44.46 44.48 44.59 45.04 45.16 53.36 55.53 57.23 58.64 60.20 61.37 63.07 65.24 66.47 70.05 71.40 71.43 70.97 71.00 70.79 70.48 69.85 69.28 68.11 68.58 68.77 67.94 67.34 66.61
40.73 40.00 39.35 39.65 39.21 40.10 41.57 41.02 41.54 42.03 43.44 44.11 43.83 44.70 46.05 44.86 44.75 44.52 44.68 44.75 53.46 54.89 55.87 57.27 58.34 59.04 60.51 61.23 64.58 67.01 71.36 70.86 70.36 70.52 70.42 70.20 69.99 69.25 68.94 69.29 68.42 67.44 66.96
40.75 40.33 40.30 39.29 39.39 40.34 40.85 40.97 40.88 41.70 42.30 43.89 42.83 43.94 44.42 44.75 44.99 44.81 44.90 44.46 45.74 51.38 54.07 54.96 55.74 56.89 58.03 59.08 60.06 63.01 67.32 68.47 69.86 70.04 70.02 70.16 70.16 70.00 69.68 69.34 69.16 67.39 67.20
40.84 39.94 39.77 39.82 40.27 39.93 39.85 39.50 39.42 39.80 40.22 41.18 41.46 42.14 43.03 43.26 43.89 44.57 44.49 44.36 44.56 45.96 48.79 52.67 54.53 55.44 56.22 56.76 58.16 60.00 62.49 64.72 65.41 67.27 67.90 70.39 70.08 70.04 69.98 69.52 69.51 68.60 67.23
41.65 40.59 40.54 40.64 40.40 38.90 38.76 39.50 39.96 39.23 38.70 39.35 41.18 42.24 41.59 42.06 43.05 45.36 43.85 44.16 43.94 44.66 44.22 49.06 52.57 53.48 54.35 56.52 56.79 57.41 57.92 60.65 62.20 64.07 65.59 67.45 69.88 69.99 69.97 69.74 69.59 69.59 69.06
42.44 41.46 40.76 40.34 40.65 39.66 38.27 38.47 37.92 38.22 38.72 39.07 42.03 43.35 41.55 41.77 41.88 41.58 42.14 43.82 43.10 43.81 43.80 44.22 44.28 45.67 52.88 55.08 57.53 57.84 58.18 58.73 59.62 61.14 62.21 63.41 65.59 69.98 70.10 70.14 69.85 69.63 69.60
42.65 42.03 41.42 40.18 40.43 39.08 38.47 38.27 37.25 36.97 36.79 37.60 36.41 36.26 36.99 38.28 38.72 39.84 40.83 40.87 41.37 42.74 42.39 43.22 43.42 45.02 46.03 52.83 52.30 54.53 59.26 59.31 60.85 61.38 62.60 63.17 64.26 63.28 68.90 70.19 69.94 69.84 69.61
43.15 42.85 42.01 41.37 40.84 39.60 39.24 37.83 37.68 35.88 36.50 37.47 36.52 35.16 32.55 35.04 36.97 39.19 39.51 40.83 39.91 40.46 41.96 43.29 43.07 44.43 44.70 45.33 48.03 52.89 55.28 56.73 58.28 59.98 61.48 62.65 63.66 65.45 66.45 68.25 69.88 69.87 69.93
43.25 43.19 42.82 42.42 41.60 40.69 38.86 38.49 37.64 36.93 35.57 36.40 38.92 37.25 31.54 31.21 33.49 36.21 37.28 38.65 39.36 39.32 39.66 40.96 42.11 43.36 43.45 42.89 47.85 53.91 54.95 54.00 54.78 56.05 57.61 59.38 61.16 62.66 64.57 66.56 66.00 69.01 69.95
42.89 43.16 43.07 42.68 42.33 41.59 39.83 38.87 39.84 38.50 37.28 35.00 37.09 39.99 36.88 34.48 31.93 31.03 34.98 36.32 37.80 38.80 38.67 39.46 40.57 41.78 42.04 43.30 51.16 51.85 52.25 52.87 53.18 53.89 55.25 57.09 58.79 60.94 62.36 63.63 65.45 66.78 67.33
42.87 43.19 43.06 42.71 42.13 41.84 40.97 40.63 39.20 39.18 38.76 37.28 35.52 35.87 37.10 34.98 33.91 32.56 30.57 32.97 35.04 37.03 38.45 39.34 39.86 40.19 41.43 42.78 44.35 47.86 51.01 51.54 52.24 52.82 53.66 55.13 57.09 58.45 60.24 61.86 63.27 64.57 66.02
41.54 42.19 42.74 42.88 42.59 41.97 41.44 41.40 41.22 40.06 38.83 38.52 37.16 36.59 36.60 35.82 34.31 32.68 31.25 31.48 32.84 35.23 37.11 38.22 38.31 39.30 40.51 41.80 46.59 49.42 52.19 52.19 52.60 53.65 54.45 55.14 55.89 56.84 57.67 58.88 60.61 62.22 63.30
39.76 40.75 41.85 42.48 42.42 42.00 42.11 42.09 41.80 40.03 39.28 37.27 37.01 36.16 37.13 36.86 37.07 35.70 34.47 32.45 32.35 33.77 35.28 36.57 37.69 38.70 41.39 41.21 42.72 51.03 51.19 50.80 51.09 51.63 52.13 52.77 53.56 54.60 55.73 56.79 57.86 59.35 61.20
40.24 41.49 42.48 44.01 42.89 42.21 42.32 42.57 41.31 41.58 39.79 39.17 37.39 36.19 36.76 37.24 37.87 37.24 36.16 34.63 30.76 31.81 32.92 34.74 36.12 37.58 39.14 41.07 44.26 50.32 46.15 49.49 50.13 50.73 51.48 51.99 52.48 53.24 54.00 54.93 56.25 57.37 58.61
42.35 42.84 42.30 41.74 41.79 41.59 42.05 41.82 41.81 41.65 41.41 40.22 38.38 37.44 36.31 36.91 37.33 37.44 37.41 36.73 34.48 29.57 30.23 32.87 34.44 37.15 38.82 40.19 43.08 43.99 44.37 47.99 50.00 50.60 51.07 50.98 51.39 52.24 53.34 54.19 54.89 55.98 57.05
42.31 42.26 41.66 41.37 41.26 41.73 41.90 41.77 40.50 40.89 41.74 41.40 41.27 39.42 37.83 38.13 37.67 36.62 36.39 36.35 35.91 34.02 31.90 33.70 34.32 36.79 38.22 40.59 42.59 43.37 43.68 48.30 49.30 49.71 49.40 49.56 50.39 51.35 52.18 53.12 54.26 54.89 55.89
40.91 42.39 41.93 41.26 40.99 40.90 41.31 41.22 41.30 41.27 41.03 41.33 41.52 41.30 41.09 41.14 39.53 38.76 37.88 36.22 35.49 35.37 32.37 33.20 34.78 35.78 36.16 37.16 39.30 40.03 41.65 40.50 40.44 45.90 47.73 48.64 49.43 50.38 51.27 51.84 52.74 54.07 55.45
41.32 41.33 42.20 41.17 40.72 40.83 40.96 40.50 40.45 40.72 40.86 39.94 40.45 40.66 40.41 41.49 40.83 40.86 37.57 36.70 35.84 35.16 34.04 32.12 33.86 34.90 35.47 36.38 37.26 37.50 39.83 41.01 38.06 42.35 46.88 48.04 48.30 49.04 50.48 51.27 52.17 53.02 54.35
39.11 40.88 40.25 39.44 40.84 41.22 40.76 40.86 40.77 40.32 40.10 40.31 40.28 39.57 39.97 39.69 39.64 38.57 38.94 36.66 36.55 38.53 35.58 34.16 33.55 34.32 34.79 34.74 35.01 34.79 35.05 34.23 38.02 41.80 43.41 45.10 46.70 48.20 49.52 51.66 54.66 53.76 54.12
38.18 39.10 40.53 40.53 39.95 39.76 40.77 41.53 41.16 40.88 40.21 40.50 40.88 40.62 39.41 39.68 38.90 38.93 36.95 36.60 36.94 36.35 35.53 34.28 33.62 33.65 33.50 33.66 33.07 31.32 29.93 30.51 31.42 36.25 38.45 41.71 44.66 46.95 49.27 52.27 55.97 55.07 54.31
37.21 38.18 39.05 40.50 40.14 40.49 42.49 40.81 41.05 40.74 39.74 40.00 40.86 40.94 40.71 41.38 43.06 42.26 38.42 36.32 36.10 34.64 34.36 33.79 32.37 30.93 34.84 33.89 29.53 26.81 31.06 31.38 31.70 34.98 31.65 35.94 36.61 40.80 45.28 50.20 53.70 55.51 54.44
35.59 36.76 37.18 39.39 40.00 41.00 45.03 45.19 42.23 41.29 40.90 39.65 39.05 40.13 40.65 42.03 42.25 44.62 45.18 45.06 40.24 34.59 33.36 33.99 32.69 29.62 33.63 32.81 32.28 31.51 31.82 32.43 26.28 32.97 32.99 33.98 35.64 37.21 42.77 46.95 51.73 54.23 55.71
34.39 34.53 35.50 38.02 39.63 40.64 44.48 44.19 44.75 42.18 40.30 39.68 40.07 40.71 39.92 40.55 41.78 40.48 41.49 43.33 43.84 44.50 43.71 36.30 34.79 29.88 26.55 32.97 32.59 31.96 32.01 31.30 27.20 32.07 33.01 32.12 34.74 34.08 36.32 44.04 47.44 48.72 49.59
32.86 33.14 33.87 35.43 38.75 40.36 43.38 43.68 42.59 38.40 37.59 37.26 37.17 37.43 37.74 39.31 40.69 38.36 37.46 36.51 36.49 37.27 37.39 36.30 35.75 33.35 33.04 32.92 32.55 32.88 32.76 31.87 32.01 32.59 33.24 31.27 32.85 32.44 34.29 36.08 45.24 44.77 46.13
33.21 32.66 32.73 32.78 36.80 38.66 42.35 41.96 39.42 37.86 38.08 38.65 38.82 38.44 37.72 37.63 40.86 39.97 34.38 33.44 33.30 33.88 39.96 42.88 40.68 40.14 40.25 40.28 36.68 34.31 32.18 32.14 30.15 31.25 32.89 32.72 32.05 32.37 32.99 32.64 35.59 42.43 44.23
33.38 33.91 32.78 32.64 36.36 36.72 41.90 41.21 38.36 36.10 35.93 36.02 37.90 39.83 41.78 39.80 41.48 40.05 32.86 32.63 31.64 31.57 32.69 33.08 33.33 35.41 36.79 39.36 39.76 35.85 34.94 31.73 31.27 30.74 34.50 32.50 32.26 32.34 30.77 33.11 32.67 33.94 35.62
MSLP
1015.78 1015.38 1015.21 1015.16 1014.92 1014.71 1014.45 1014.41 1014.06 1013.62 1013.25 1013.09 1012.83 1012.99 1012.79 1012.83 1012.96 1012.97 1012.81 1012.52 1012.06 1011.74 1011.51 1011.17 1010.98 1011.28 1011.34 1011.15 1010.89 1010.78 1010.95 1011.42 1011.83 1012.16 1012.56 1012.95 1013.22 1013.57 1013.89 1014.18 1014.46 1015.03 1015.23
1014.83 1014.64 1014.66 1014.58 1014.52 1014.26 1013.98 1013.85 1013.92 1013.44 1013.08 1012.87 1012.51 1012.56 1012.58 1012.51 1012.54 1012.64 1012.64 1012.50 1012.14 1011.92 1011.75 1011.65 1011.38 1011.23 1011.19 1011.24 1010.53 1010.38 1010.11 1010.72 1011.34 1011.87 1012.19 1012.47 1012.68 1013.05 1013.46 1013.73 1014.08 1014.50 1014.92
1014.80 1014.38 1014.23 1014.15 1013.98 1013.76 1013.68 1013.51 1013.23 1013.14 1012.86 1012.78 1012.53 1012.06 1012.22 1012.38 1012.30 1012.30 1012.30 1012.36 1012.33 1012.20 1011.99 1011.93 1011.60 1011.43 1011.23 1011.15 1011.47 1011.15 1008.80 1010.83 1011.23 1011.58 1011.94 1012.24 1012.37 1012.50 1012.83 1013.29 1013.59 1013.91 1014.37
1014.80 1014.36 1013.95 1013.58 1013.31 1013.36 1013.30 1013.24 1013.20 1012.97 1012.57 1012.67 1012.47 1011.99 1011.85 1011.92 1012.02 1012.04 1012.01 1012.05 1012.06 1012.10 1012.05 1011.82 1011.65 1011.42 1011.17 1010.85 1010.48 1010.61 1010.27 1010.51 1011.34 1011.38 1011.61 1011.61 1011.87 1012.13 1012.38 1012.75 1013.05 1013.40 1013.82
1014.37 1014.04 1013.66 1013.05 1012.65 1012.66 1012.62 1012.57 1012.54 1012.39 1012.27 1012.13 1012.25 1012.05 1011.59 1011.58 1011.52 1011.62 1011.75 1011.81 1011.84 1011.85 1011.80 1011.75 1011.54 1011.44 1011.31 1010.84 1010.59 1010.51 1010.77 1011.46 1011.39 1011.32 1011.77 1010.15 1011.06 1011.46 1011.73 1012.11 1012.52 1012.88 1013.22
1013.63 1013.38 1013.06 1012.75 1012.31 1012.02 1011.94 1011.95 1011.99 1011.79 1011.87 1011.99 1011.66 1011.56 1011.22 1011.06 1011.18 1011.29 1011.54 1011.57 1011.72 1011.63 1011.53 1011.57 1011.69 1011.57 1011.31 1010.93 1010.54 1010.19 1009.99 1010.04 1011.21 1011.20 1011.51 1011.02 1011.22 1010.69 1010.96 1011.31 1011.77 1012.29 1012.64
1013.07 1012.78 1012.54 1012.18 1011.93 1011.65 1011.29 1011.20 1011.27 1011.42 1011.53 1011.48 1011.77 1011.34 1011.26 1011.00 1010.93 1011.00 1011.16 1011.32 1011.59 1011.43 1011.33 1011.35 1011.32 1011.38 1011.37 1011.04 1010.88 1010.73 1010.49 1010.60 1010.80 1010.66 1010.94 1010.50 1010.43 1010.29 1010.07 1010.48 1010.88 1011.47 1011.97
1012.46 1012.01 1011.65 1011.36 1011.19 1011.18 1010.93 1010.55 1010.62 1010.83 1010.74 1010.88 1011.14 1011.45 1011.30 1011.28 1010.86 1010.67 1010.87 1010.96 1011.28 1011.25 1011.13 1011.08 1011.04 1010.95 1011.05 1011.13 1010.99 1010.77 1010.89 1010.70 1010.41 1010.63 1010.66 1010.51 1010.08 1010.05 1008.60 1009.45 1010.19 1010.80 1011.26
1011.85 1011.43 1011.02 1010.62 1010.34 1010.30 1010.25 1010.03 1009.82 1010.03 1010.28 1010.25 1010.08 1010.38 1010.98 1010.64 1010.93 1010.68 1010.77 1010.63 1010.97 1011.16 1010.97 1011.01 1010.78 1010.69 1010.80 1010.94 1010.86 1010.69 1010.59 1010.56 1010.66 1010.73 1010.78 1010.20 1010.36 1010.22 1009.96 1009.95 1010.09 1010.16 1010.30
1011.03 1010.61 1010.19 1009.81 1009.51 1009.41 1009.34 1009.19 1009.06 1009.16 1009.41 1009.49 1009.57 1009.52 1009.74 1010.14 1010.52 1010.92 1010.78 1010.66 1010.63 1011.02 1010.91 1010.79 1010.63 1010.62 1010.68 1010.73 1010.67 1010.50 1010.53 1010.48 1010.42 1010.42 1010.37 1010.27 1010.57 1010.59 1010.02 1010.31 1009.98 1009.51 1009.26
1010.39 1009.75 1009.27 1008.90 1008.71 1008.50 1008.46 1008.51 1008.42 1008.34 1008.66 1008.66 1008.84 1009.04 1009.29 1009.73 1009.98 1010.39 1010.80 1010.90 1010.73 1010.78 1010.70 1010.35 1010.48 1010.40 1010.46 1010.45 1010.57 1010.29 1010.20 1010.36 1010.46 1010.44 1010.43 1010.51 1010.65 1010.44 1010.19 1010.01 1009.78 1009.24 1009.57
1009.83 1009.26 1008.63 1008.05 1007.78 1007.74 1007.57 1007.61 1007.70 1007.85 1007.96 1008.07 1008.18 1008.32 1008.57 1009.19 1009.75 1010.22 1010.26 1010.58 1010.57 1010.50 1010.37 1010.27 1010.19 1010.25 1010.13 1010.20 1010.13 1010.00 1009.93 1010.00 1010.14 1010.34 1010.33 1010.06 1010.03 1010.07 1010.02 1009.99 1009.78 1009.78 1010.04
1009.40 1008.63 1007.82 1006.85 1006.71 1006.93 1006.96 1007.02 1007.06 1007.06 1007.44 1007.65 1007.74 1007.82 1008.01 1008.24 1008.62 1009.22 1009.49 1010.06 1010.48 1010.52 1010.39 1010.03 1009.77 1010.11 1009.92 1009.98 1009.86 1009.76 1009.70 1009.81 1009.82 1010.01 1010.13 1009.91 1009.79 1009.84 1009.83 1009.89 1009.60 1009.57 1009.57
1009.06 1008.23 1007.47 1006.20 1006.14 1006.58 1006.49 1006.56 1006.55 1006.59 1006.68 1006.99 1007.19 1007.39 1007.58 1007.86 1008.13 1008.39 1008.90 1009.50 1010.23 1010.31 1010.41 1009.96 1009.67 1009.72 1009.82 1009.73 1009.58 1009.47 1009.68 1009.66 1009.78 1009.78 1009.80 1009.75 1009.66 1009.57 1009.47 1009.22 1009.21 1009.27 1009.11
1008.79 1008.04 1007.55 1007.08 1006.73 1006.57 1006.30 1006.34 1006.28 1006.05 1006.23 1006.40 1006.68 1006.96 1007.21 1007.33 1007.55 1007.80 1008.17 1008.46 1009.09 1009.91 1010.31 1009.96 1009.84 1009.32 1009.49 1009.41 1009.47 1009.43 1009.34 1009.49 1009.50 1009.53 1009.49 1009.26 1009.20 1009.05 1008.89 1008.80 1008.61 1008.52 1008.60
1008.87 1008.14 1007.64 1007.15 1006.71 1006.44 1006.23 1006.12 1006.14 1006.05 1005.80 1006.03 1006.17 1006.48 1006.86 1007.00 1007.06 1007.34 1007.76 1008.02 1008.26 1008.85 1009.41 1009.25 1009.30 1009.09 1009.04 1008.88 1009.02 1009.03 1009.14 1009.40 1009.30 1009.33 1009.23 1009.18 1008.84 1008.52 1008.39 1008.29 1008.07 1007.96 1007.91
1009.17 1008.09 1007.55 1007.09 1006.66 1006.35 1006.18 1006.00 1005.87 1005.83 1005.82 1005.75 1005.93 1006.13 1006.47 1006.69 1007.03 1007.25 1007.37 1007.60 1007.85 1008.29 1008.90 1009.15 1009.13 1009.02 1009.10 1008.91 1008.88 1008.84 1009.04 1009.27 1009.30 1009.25 1008.92 1008.83 1008.56 1008.12 1007.58 1007.36 1007.35 1007.09 1006.97
1009.43 1008.55 1007.57 1007.03 1006.60 1006.29 1006.07 1005.88 1005.74 1005.61 1005.56 1005.66 1005.88 1005.97 1006.27 1006.36 1006.68 1006.90 1007.30 1007.51 1007.76 1008.02 1008.50 1008.97 1008.85 1008.79 1008.74 1008.63 1008.77 1008.93 1008.94 1008.99 1009.04 1008.80 1008.46 1008.31 1008.06 1007.76 1007.21 1006.44 1005.85 1005.78 1005.81
1010.11 1008.97 1008.16 1007.35 1006.49 1005.98 1005.77 1005.63 1005.49 1005.43 1005.48 1005.52 1005.64 1005.87 1005.96 1006.14 1006.32 1006.58 1006.87 1007.23 1007.46 1007.70 1008.08 1008.44 1008.51 1008.36 1008.40 1008.58 1008.62 1008.84 1009.01 1009.05 1008.75 1008.47 1008.26 1008.03 1007.56 1006.94 1006.27 1005.48 1004.22 1004.13 1004.13
1010.66 1009.52 1008.42 1007.46 1006.68 1005.99 1005.44 1005.09 1005.06 1005.10 1005.15 1005.16 1005.31 1005.46 1005.66 1005.86 1006.07 1006.26 1006.49 1006.74 1007.04 1007.34 1007.50 1007.95 1008.16 1008.22 1008.24 1008.38 1008.70 1008.93 1009.10 1009.15 1008.84 1008.64 1008.40 1007.91 1007.27 1006.28 1005.35 1004.23 1002.78 1002.09 1002.56
1011.42 1010.29 1008.90 1007.73 1006.88 1005.75 1004.31 1003.99 1004.51 1004.79 1005.10 1005.14 1005.22 1005.33 1005.42 1005.47 1005.48 1005.67 1005.90 1006.17 1006.48 1006.82 1007.20 1007.54 1007.81 1008.02 1008.40 1008.67 1008.73 1008.74 1009.13 1009.06 1008.88 1008.82 1008.61 1008.12 1007.52 1006.10 1004.94 1003.33 1001.72 1001.15 1001.41
1012.25 1011.13 1009.77 1008.46 1007.25 1006.02 1004.43 1003.54 1004.12 1004.54 1004.91 1005.30 1005.46 1005.34 1005.31 1005.23 1005.24 1005.02 1004.89 1005.02 1005.57 1006.02 1006.54 1006.98 1007.22 1007.61 1007.87 1008.22 1008.45 1008.82 1009.03 1009.18 1008.99 1008.75 1008.50 1008.29 1007.77 1006.45 1004.97 1003.63 1001.91 1000.85 1000.34
1013.22 1012.14 1010.98 1009.56 1008.28 1007.15 1006.01 1005.22 1004.48 1004.71 1005.50 1005.78 1005.69 1005.43 1005.28 1005.16 1005.02 1005.06 1005.06 1005.03 1004.88 1005.07 1005.47 1006.20 1006.62 1007.02 1007.41 1007.43 1007.78 1008.25 1008.38 1008.67 1008.56 1008.65 1008.72 1008.68 1007.96 1006.84 1006.13 1005.12 1003.98 1002.79 1002.27
1014.16 1013.24 1012.17 1011.08 1009.79 1008.47 1007.69 1007.01 1006.77 1006.82 1006.85 1006.76 1006.55 1006.27 1005.92 1005.51 1005.11 1005.36 1005.58 1005.77 1005.93 1005.95 1005.93 1005.99 1006.19 1006.31 1006.45 1006.74 1006.97 1007.04 1007.53 1008.18 1008.50 1008.72 1008.88 1008.93 1008.24 1007.74 1007.32 1006.98 1005.40 1004.51 1003.86
1014.85 1013.99 1013.24 1012.33 1011.11 1010.00 1009.02 1008.78 1008.50 1008.19 1007.77 1007.44 1007.38 1007.12 1006.84 1006.49 1006.17 1006.17 1006.26 1006.48 1006.69 1006.79 1006.61 1006.05 1005.89 1005.82 1005.80 1005.91 1006.33 1006.83 1007.43 1007.75 1008.41 1008.71 1008.77 1008.62 1008.58 1008.28 1008.10 1008.14 1007.08 1005.85 1005.45
1015.50 1014.84 1014.08 1013.32 1012.52 1011.50 1010.33 1009.86 1009.72 1009.65 1009.09 1008.84 1008.34 1007.67 1007.41 1007.31 1007.21 1007.20 1007.26 1007.30 1007.39 1007.65 1007.43 1007.23 1007.10 1006.90 1006.78 1006.57 1006.76 1006.89 1007.14 1007.49 1007.98 1008.53 1008.66 1008.73 1008.79 1008.75 1008.70 1008.85 1008.39 1007.83 1007.55
Wind_Speed
6 5 5 4 5 5 4 5 5 5 5 6 5 5 3 2 3 2 2 11 11 10 10 11 8 8 11 17 19 28 26 25 24 24 23 22 22 21 19 19 19 19 18
8 8 5 4 5 4 5 4 5 5 5 4 5 5 5 4 2 2 2 4 9 10 10 10 10 9 6 12 22 27 28 25 24 24 23 23 23 22 21 20 20 20 19
11 10 7 5 5 5 6 5 5 4 4 5 7 5 4 5 4 3 2 2 4 8 9 11 11 11 11 6 8 18 9 7 19 23 24 24 23 24 23 22 22 22 21
10 9 7 7 6 4 4 4 4 5 4 4 4 5 4 4 5 5 3 2 2 2 6 10 12 11 12 13 12 8 13 10 10 12 14 25 24 23 24 24 23 22 23
11 8 9 10 8 5 5 5 5 4 3 3 5 7 5 5 5 3 4 4 4 2 2 8 11 11 11 12 11 9 6 9 6 15 18 10 24 25 25 25 24 24 23
12 9 8 9 10 8 5 4 6 4 4 4 5 7 5 5 4 4 4 3 4 5 3 3 3 5 7 7 7 7 6 6 7 12 12 7 20 27 26 25 25 25 24
12 11 9 9 9 9 9 8 5 7 5 4 2 3 3 5 5 5 4 4 5 5 4 4 3 3 3 4 5 6 6 6 5 4 7 9 14 13 20 27 26 26 26
14 12 12 10 9 7 11 8 9 5 4 5 5 2 4 3 3 5 3 4 6 4 3 4 4 5 4 2 2 2 3 5 6 7 8 8 12 15 12 16 25 27 26
14 14 14 12 11 9 9 10 8 9 7 5 10 5 2 5 1 0 5 4 5 3 2 4 4 3 3 3 3 2 2 4 5 7 10 12 14 14 14 13 7 23 29
14 14 14 13 12 9 10 9 8 8 6 6 3 6 3 3 4 1 2 3 4 4 4 4 2 3 3 3 4 0 2 3 7 10 11 13 15 15 13 14 15 7 8
13 14 14 13 11 9 10 11 9 8 7 4 4 3 3 2 1 3 4 3 1 3 5 3 3 2 3 3 3 1 4 5 6 10 12 12 14 15 15 17 18 14 9
9 11 13 12 11 10 10 9 11 10 8 7 5 5 5 4 3 3 2 3 4 4 4 4 4 4 3 4 3 0 2 4 6 8 10 12 14 16 17 17 19 16 16
9 11 14 13 9 9 10 9 9 10 10 7 8 4 4 4 4 4 3 2 4 4 3 4 4 4 3 3 3 4 1 3 8 10 12 14 15 17 19 19 19 20 18
9 13 11 10 4 6 7 6 7 6 7 8 8 6 5 4 4 4 4 5 2 2 2 5 2 4 4 4 6 5 2 4 7 12 14 15 17 19 20 22 23 22 20
8 9 8 7 5 6 6 5 5 7 8 6 5 5 4 4 4 5 4 4 5 4 5 4 3 4 4 4 6 3 2 5 9 11 13 17 19 20 22 24 24 24 24
13 8 7 6 5 5 5 5 5 7 7 7 5 5 4 2 4 4 4 4 4 5 6 4 5 5 4 3 5 3 3 7 9 12 13 16 20 23 23 24 26 26 26
14 10 7 6 5 4 4 3 3 6 5 5 6 7 7 6 2 2 2 2 3 4 4 2 3 3 3 4 4 2 2 3 4 11 15 18 19 23 26 27 27 28 27
14 16 10 6 6 5 4 4 4 4 4 6 6 7 8 6 8 8 3 4 3 3 4 5 4 4 5 3 2 3 3 2 3 9 14 17 20 22 26 31 31 30 28
17 14 13 14 11 5 5 5 4 5 6 6 7 7 8 8 6 3 7 5 4 4 4 3 4 3 3 1 0 1 2 2 2 8 12 16 17 22 26 30 31 30 29
17 16 15 12 12 10 9 7 6 5 5 4 6 7 5 6 6 8 6 5 5 5 4 4 4 4 2 1 1 2 3 0 2 2 8 12 17 18 21 24 24 31 28
17 18 17 15 13 10 10 9 7 5 2 4 2 2 5 7 11 12 4 5 5 4 3 3 3 2 3 3 3 1 2 2 2 2 3 4 8 9 9 15 13 19 22
17 17 19 16 17 12 28 4 7 6 4 2 4 3 3 10 9 15 15 19 12 6 5 5 4 4 5 4 3 3 2 2 2 1 2 4 7 8 9 8 13 5 19
16 17 18 19 17 19 33 32 28 6 8 2 4 3 3 4 8 2 1 12 14 5 12 6 5 5 4 8 6 4 4 3 2 2 1 3 5 7 10 9 21 21 20
14 14 16 19 15 18 34 33 27 15 12 13 12 10 10 10 2 5 7 7 7 8 3 2 2 3 4 5 6 5 5 4 3 2 1 1 3 5 7 10 18 19 23
13 13 13 17 19 17 32 30 21 13 13 11 9 10 9 10 16 16 10 9 9 9 13 14 2 3 3 8 9 7 6 8 2 1 3 1 3 3 5 6 10 22 18
8 10 15 15 23 17 29 29 21 11 13 11 14 10 22 16 22 21 10 9 10 7 9 10 10 13 14 13 14 6 3 5 4 2 2 2 2 2 3 4 6 9 9
Wind_Direction
276 252 246 245 255 267 261 277 285 289 280 259 228 251 241 260 319 330 341 347 346 353 346 345 1 338 311 311 261 223 213 209 208 205 200 202 199 202 205 197 195 196 195
294 292 266 248 253 253 269 261 272 287 278 260 230 228 228 217 235 301 319 336 340 351 356 353 351 342 343 339 322 329 213 209 210 213 210 206 200 203 203 201 198 199 200
289 281 286 266 237 248 259 271 284 277 274 270 256 219 219 246 248 256 260 290 323 334 345 346 341 334 323 324 327 331 24 254 225 223 223 215 211 203 200 205 201 204 204
293 292 287 278 266 234 242 247 253 270 244 253 261 247 226 209 236 250 259 254 235 295 327 331 334 335 331 319 315 340 347 338 337 294 316 225 218 211 206 204 204 205 207
293 293 292 288 275 255 237 238 248 215 251 261 253 254 233 230 221 218 242 250 253 271 285 313 321 331 322 312 301 289 268 281 304 305 279 309 222 214 211 210 208 207 206
277 276 280 290 288 273 249 226 223 230 213 235 268 267 226 212 209 208 234 262 276 280 275 294 312 313 305 327 1 336 307 281 237 263 285 303 306 221 214 212 212 212 209
280 274 271 272 273 268 259 234 214 227 244 213 241 281 274 245 225 224 221 231 261 262 286 287 264 260 270 297 352 350 8 353 335 316 275 274 284 293 265 217 215 214 214
289 281 270 266 258 274 278 248 237 229 229 194 195 183 241 292 251 225 215 217 236 246 279 303 287 247 227 257 272 341 341 339 342 335 331 329 319 319 303 267 223 221 217
281 277 272 267 258 251 256 261 238 227 232 219 207 176 175 216 122 300 226 210 229 231 259 281 291 264 261 255 274 129 53 356 354 341 324 326 320 323 324 326 265 258 223
276 273 269 263 261 250 248 252 239 238 213 210 190 218 171 142 164 203 285 238 214 220 231 264 290 284 282 269 252 215 33 355 336 332 327 324 319 314 323 312 315 274 277
296 275 269 265 256 256 243 254 245 227 222 196 201 174 170 164 180 149 209 264 330 238 236 235 259 243 232 236 241 275 15 355 332 320 316 314 312 313 314 314 312 320 292
302 292 285 269 253 253 246 246 243 238 233 226 219 201 192 160 181 182 146 192 192 244 244 242 240 258 212 198 216 349 34 352 349 338 324 319 314 311 309 306 304 302 297
309 301 295 270 243 242 251 241 258 219 229 217 211 204 203 197 161 184 175 176 206 228 246 249 221 211 223 215 208 174 152 343 329 320 314 310 307 305 303 299 295 294 293
305 304 329 339 227 246 258 281 232 244 220 226 219 209 198 198 180 174 175 171 233 227 247 237 252 210 215 215 226 214 193 305 311 307 306 305 302 298 294 294 290 286 285
317 327 328 330 315 286 277 244 285 225 229 219 211 209 203 204 202 193 179 175 167 181 228 233 219 226 219 208 231 205 225 284 293 297 300 305 302 297 292 285 283 281 277
332 336 336 329 320 315 284 269 252 276 228 226 217 172 181 208 202 194 196 186 183 175 227 179 219 217 223 208 230 213 232 273 289 296 301 301 300 296 290 284 278 272 270
341 332 329 326 321 314 306 287 297 231 270 236 218 214 222 219 204 173 159 162 175 158 183 251 211 201 230 235 263 256 245 266 287 305 306 302 297 293 288 283 273 266 262
353 359 340 319 311 311 305 301 285 264 268 222 242 228 239 225 234 231 207 197 182 171 145 190 219 226 214 207 222 275 255 215 280 306 307 303 300 291 285 281 271 261 256
354 358 2 355 334 290 266 269 257 251 221 225 224 238 231 215 235 223 224 209 204 202 184 173 221 222 238 187 236 199 249 280 272 308 314 306 300 297 287 285 264 252 247
360 345 358 345 348 333 308 252 240 236 227 228 219 223 224 240 231 234 220 216 208 210 189 188 207 225 223 235 169 212 289 14 311 332 317 309 318 309 304 292 272 243 239
0 356 358 357 358 340 310 202 211 219 222 238 232 266 226 222 235 236 218 219 198 198 204 207 212 157 205 223 198 217 244 286 286 9 306 312 329 308 315 305 284 236 228
358 0 355 2 10 10 14 197 186 190 167 53 305 284 259 265 278 278 263 230 208 184 202 197 210 194 216 211 190 216 220 226 287 55 2 326 341 317 351 342 21 67 213
356 3 2 3 14 25 36 41 42 72 66 29 315 337 277 254 266 265 351 45 43 243 235 199 210 201 190 204 178 189 182 199 192 29 9 356 332 1 354 7 35 62 67
0 1 4 5 10 32 38 38 43 49 54 46 39 30 28 18 87 108 90 66 52 36 36 337 283 245 219 195 192 187 169 114 88 85 7 75 316 25 359 353 43 53 65
7 9 10 9 13 21 44 39 32 29 35 43 55 54 46 49 60 69 68 74 62 42 32 54 98 206 212 203 165 134 145 143 115 54 14 93 337 7 25 355 355 32 68
3 13 15 14 15 18 38 43 41 26 29 27 25 32 66 71 70 65 57 62 67 50 50 44 39 39 41 67 80 72 111 129 116 104 17 68 3 355 35 358 2 14 9